ONEWEB-0038 (45145 NORAD) Tracking and Keplerian Element Data

This shows tracking and keplerian element data for the satellite.

Feedback or suggestion? Click here.




ElementValue
Catalog45145
NameONEWEB-0038
Epoch Orbit2445
Epoch Day197.25001157
Epoch Year2020
RAAN113.191
Inclination87.4505
Eccentricity0.0023877
Argument of Perigee93.7184
Mean Anonmoly150.3321
Mean Motion14.68779917
Decay Rate0.00021232
L11 45145U 20008Q 20197.25001157 .00021232 00000-0 36144-2 0 9999
L22 45145 87.4505 113.1910 0023877 93.7184 150.3321 14.68779917 24454

Live tracking and technical data element details for ONEWEB-0038 (NORAD 45145). ONEWEB-0038 can be tracked NOW for your location showing map with azimuth and elevation plus other details from your city location.

Track the satellite on the map from your city or location and see movement details for azimuth, elevation, latitude, longitude, range, height, and movement on the map or in text.







IsCatalogInMostPopularTable: catalog: 45145, numindb: 32
Update: records affected: 1



GetName: 45145 ONEWEB-0038

Hit Count: updated at: Thu, 16 Jul 2020 03:33:12 GMT